Time,TemperatureF,DewpointF,PressureIn,WindDirection,WindDirectionDegrees,WindSpeedMPH,WindSpeedGustMPH,Humidity,HourlyPrecipIn,Conditions,Clouds,dailyrainin,SolarRadiationWatts/m^2,SoftwareType,DateUTC
2013-04-18 00:02:00,74.0,66.0,-100.00,SE,139,13.0,22.0,77,0.00,,,0.00,1.000000,,2013-04-18 05:02:00,
2013-04-18 00:33:00,73.0,67.0,-100.00,SSE,148,13.0,20.0,81,0.00,,,0.00,1.000000,,2013-04-18 05:33:00,
2013-04-18 00:42:00,73.0,67.0,-100.00,SSE,148,13.0,20.0,81,0.00,,,0.00,1.000000,,2013-04-18 05:42:00,
2013-04-18 00:52:00,73.0,67.0,-100.00,SSE,148,13.0,20.0,81,0.00,,,0.00,1.000000,,2013-04-18 05:52:00,
2013-04-18 01:02:00,73.0,67.0,-100.00,SSE,148,13.0,20.0,81,0.00,,,0.00,1.000000,,2013-04-18 06:02:00,
2013-04-18 01:32:00,74.0,68.0,-100.00,SSE,159,15.0,26.0,81,0.00,,,0.00,1.000000,,2013-04-18 06:32:00,
2013-04-18 01:42:00,74.0,68.0,-100.00,SSE,159,15.0,26.0,81,0.00,,,0.00,1.000000,,2013-04-18 06:42:00,
2013-04-18 01:52:00,74.0,68.0,-100.00,SSE,159,15.0,26.0,81,0.00,,,0.00,1.000000,,2013-04-18 06:52:00,
2013-04-18 02:02:00,74.0,68.0,-100.00,SSE,159,15.0,26.0,81,0.00,,,0.00,1.000000,,2013-04-18 07:02:00,
2013-04-18 02:32:00,75.0,69.0,-100.00,SSE,160,16.0,25.0,81,0.00,,,0.00,1.000000,,2013-04-18 07:32:00,
2013-04-18 02:42:00,75.0,69.0,-100.00,SSE,160,16.0,25.0,81,0.00,,,0.00,1.000000,,2013-04-18 07:42:00,
2013-04-18 02:52:00,75.0,69.0,-100.00,SSE,160,16.0,25.0,81,0.00,,,0.00,1.000000,,2013-04-18 07:52:00,
2013-04-18 03:02:00,75.0,69.0,-100.00,SSE,160,16.0,25.0,81,0.00,,,0.00,1.000000,,2013-04-18 08:02:00,
2013-04-18 03:32:00,69.0,62.0,-100.00,WNW,284,26.0,48.0,78,0.00,,,0.00,1.000000,,2013-04-18 08:32:00,
2013-04-18 03:42:00,69.0,62.0,-100.00,WNW,284,26.0,48.0,78,0.00,,,0.00,1.000000,,2013-04-18 08:42:00,
2013-04-18 03:52:00,69.0,62.0,-100.00,WNW,284,26.0,48.0,78,0.00,,,0.00,1.000000,,2013-04-18 08:52:00,
2013-04-18 04:02:00,69.0,62.0,-100.00,WNW,284,26.0,48.0,78,0.00,,,0.00,1.000000,,2013-04-18 09:02:00,
2013-04-18 04:33:00,52.0,50.0,-100.00,NW,321,23.0,50.0,92,0.24,,,0.24,1.000000,,2013-04-18 09:33:00,
2013-04-18 04:43:00,52.0,50.0,-100.00,NW,321,23.0,50.0,92,0.24,,,0.24,1.000000,,2013-04-18 09:43:00,
2013-04-18 04:53:00,52.0,50.0,-100.00,NW,321,23.0,50.0,92,0.24,,,0.24,1.000000,,2013-04-18 09:53:00,
2013-04-18 05:03:00,52.0,50.0,-100.00,NW,321,23.0,50.0,92,0.24,,,0.24,1.000000,,2013-04-18 10:03:00,
2013-04-18 05:33:00,50.0,47.0,-100.00,NW,317,14.0,28.0,89,0.02,,,0.26,1.000000,,2013-04-18 10:33:00,
2013-04-18 05:42:00,50.0,47.0,-100.00,NW,317,14.0,28.0,89,0.02,,,0.26,1.000000,,2013-04-18 10:42:00,
2013-04-18 05:52:00,50.0,47.0,-100.00,NW,317,14.0,28.0,89,0.02,,,0.26,1.000000,,2013-04-18 10:52:00,
2013-04-18 06:02:00,50.0,47.0,-100.00,NW,317,14.0,28.0,89,0.02,,,0.26,1.000000,,2013-04-18 11:02:00,
2013-04-18 06:32:00,48.0,43.0,-100.00,NNW,327,21.0,32.0,84,0.00,,,0.26,1.000000,,2013-04-18 11:32:00,
2013-04-18 06:42:00,48.0,43.0,-100.00,NNW,327,21.0,32.0,84,0.00,,,0.26,1.000000,,2013-04-18 11:42:00,
2013-04-18 06:52:00,48.0,43.0,-100.00,NNW,327,21.0,32.0,84,0.00,,,0.26,1.000000,,2013-04-18 11:52:00,
2013-04-18 07:02:00,48.0,43.0,-100.00,NNW,327,21.0,32.0,84,0.00,,,0.26,1.000000,,2013-04-18 12:02:00,
2013-04-18 07:32:00,46.0,40.0,-100.00,NW,326,18.0,28.0,80,0.01,,,0.27,1.000000,,2013-04-18 12:32:00,
2013-04-18 07:42:00,46.0,40.0,-100.00,NW,326,18.0,28.0,80,0.01,,,0.27,1.000000,,2013-04-18 12:42:00,
2013-04-18 07:52:00,46.0,40.0,-100.00,NW,326,18.0,28.0,80,0.01,,,0.27,1.000000,,2013-04-18 12:52:00,
2013-04-18 08:02:00,46.0,40.0,-100.00,NW,326,18.0,28.0,80,0.01,,,0.27,1.000000,,2013-04-18 13:02:00,
2013-04-18 08:33:00,45.0,38.0,-100.00,NNW,329,20.0,30.0,76,0.00,,,0.27,27.000000,,2013-04-18 13:33:00,
2013-04-18 08:43:00,45.0,38.0,-100.00,NNW,329,20.0,30.0,76,0.00,,,0.27,27.000000,,2013-04-18 13:43:00,
2013-04-18 08:53:00,45.0,38.0,-100.00,NNW,329,20.0,30.0,76,0.00,,,0.27,27.000000,,2013-04-18 13:53:00,
2013-04-18 09:02:00,45.0,38.0,-100.00,NNW,329,20.0,30.0,76,0.00,,,0.27,27.000000,,2013-04-18 14:02:00,
2013-04-18 09:33:00,46.0,38.0,-100.00,NW,324,20.0,30.0,73,0.00,,,0.27,128.000000,,2013-04-18 14:33:00,
2013-04-18 09:43:00,46.0,38.0,-100.00,NW,324,20.0,30.0,73,0.00,,,0.27,128.000000,,2013-04-18 14:43:00,
2013-04-18 09:52:00,46.0,38.0,-100.00,NW,324,20.0,30.0,73,0.00,,,0.27,128.000000,,2013-04-18 14:52:00,
2013-04-18 10:02:00,46.0,38.0,-100.00,NW,324,20.0,30.0,73,0.00,,,0.27,128.000000,,2013-04-18 15:02:00,
2013-04-18 10:33:00,47.0,37.0,-100.00,NNW,331,24.0,29.0,68,0.00,,,0.27,283.000000,,2013-04-18 15:33:00,
2013-04-18 10:43:00,47.0,37.0,-100.00,NNW,331,24.0,29.0,68,0.00,,,0.27,283.000000,,2013-04-18 15:43:00,
2013-04-18 10:53:00,47.0,37.0,-100.00,NNW,331,24.0,29.0,68,0.00,,,0.27,283.000000,,2013-04-18 15:53:00,
2013-04-18 11:03:00,47.0,37.0,-100.00,NNW,331,24.0,29.0,68,0.00,,,0.27,283.000000,,2013-04-18 16:03:00,
2013-04-18 11:33:00,49.0,36.0,-100.00,NW,326,20.0,29.0,61,0.00,,,0.27,524.000000,,2013-04-18 16:33:00,
2013-04-18 11:43:00,49.0,36.0,-100.00,NW,326,20.0,29.0,61,0.00,,,0.27,524.000000,,2013-04-18 16:43:00,
2013-04-18 11:53:00,49.0,36.0,-100.00,NW,326,20.0,29.0,61,0.00,,,0.27,524.000000,,2013-04-18 16:53:00,
2013-04-18 12:03:00,49.0,36.0,-100.00,NW,326,20.0,29.0,61,0.00,,,0.27,524.000000,,2013-04-18 17:03:00,
2013-04-18 12:33:00,52.0,36.0,-100.00,NNW,329,18.0,27.0,55,0.00,,,0.27,780.000000,,2013-04-18 17:33:00,
2013-04-18 12:43:00,52.0,36.0,-100.00,NNW,329,18.0,27.0,55,0.00,,,0.27,780.000000,,2013-04-18 17:43:00,
2013-04-18 12:52:00,52.0,36.0,-100.00,NNW,329,18.0,27.0,55,0.00,,,0.27,780.000000,,2013-04-18 17:52:00,
2013-04-18 13:02:00,52.0,36.0,-100.00,NNW,329,18.0,27.0,55,0.00,,,0.27,780.000000,,2013-04-18 18:02:00,
2013-04-18 13:33:00,55.0,37.0,-100.00,NNW,332,17.0,27.0,50,0.00,,,-99.99,901.000000,,2013-04-18 18:33:00,
2013-04-18 13:43:00,55.0,37.0,-100.00,NNW,332,17.0,27.0,50,0.00,,,-99.99,901.000000,,2013-04-18 18:43:00,
2013-04-18 13:52:00,55.0,37.0,-100.00,NNW,332,17.0,27.0,50,0.00,,,-99.99,901.000000,,2013-04-18 18:52:00,
2013-04-18 14:02:00,55.0,37.0,-100.00,NNW,332,17.0,27.0,50,0.00,,,-99.99,901.000000,,2013-04-18 19:02:00,
2013-04-18 14:33:00,58.0,37.0,-100.00,NNW,331,16.0,24.0,45,0.00,,,0.27,926.000000,,2013-04-18 19:33:00,
2013-04-18 14:42:00,58.0,37.0,-100.00,NNW,331,16.0,24.0,45,0.00,,,0.27,926.000000,,2013-04-18 19:42:00,
2013-04-18 14:53:00,58.0,37.0,-100.00,NNW,331,16.0,24.0,45,0.00,,,0.27,926.000000,,2013-04-18 19:53:00,
2013-04-18 15:02:00,58.0,37.0,-100.00,NNW,331,16.0,24.0,45,0.00,,,0.27,926.000000,,2013-04-18 20:02:00,
2013-04-18 15:32:00,60.0,36.0,-100.00,NNW,334,18.0,26.0,40,0.00,,,0.27,890.000000,,2013-04-18 20:32:00,
2013-04-18 15:42:00,60.0,36.0,-100.00,NNW,334,18.0,26.0,40,0.00,,,0.27,890.000000,,2013-04-18 20:42:00,
2013-04-18 15:52:00,60.0,36.0,-100.00,NNW,334,18.0,26.0,40,0.00,,,0.27,890.000000,,2013-04-18 20:52:00,
2013-04-18 16:02:00,60.0,36.0,-100.00,NNW,334,18.0,26.0,40,0.00,,,0.27,890.000000,,2013-04-18 21:02:00,
2013-04-18 17:33:00,61.0,32.0,-100.00,North,350,17.0,28.0,33,-99.99,,,0.27,658.000000,,2013-04-18 22:33:00,
2013-04-18 17:42:00,61.0,32.0,-100.00,North,350,17.0,28.0,33,-99.99,,,0.27,658.000000,,2013-04-18 22:42:00,
2013-04-18 17:52:00,61.0,32.0,-100.00,North,350,17.0,28.0,33,-99.99,,,0.27,658.000000,,2013-04-18 22:52:00,
2013-04-18 18:04:00,61.0,32.0,-100.00,North,350,17.0,28.0,33,-99.99,,,0.27,658.000000,,2013-04-18 23:04:00,
2013-04-18 18:32:00,61.0,30.0,-100.00,North,352,17.0,27.0,31,0.00,,,0.27,459.000000,,2013-04-18 23:32:00,
2013-04-18 18:42:00,61.0,30.0,-100.00,North,352,17.0,27.0,31,0.00,,,0.27,459.000000,,2013-04-18 23:42:00,
2013-04-18 18:52:00,61.0,30.0,-100.00,North,352,17.0,27.0,31,0.00,,,0.27,459.000000,,2013-04-18 23:52:00,
2013-04-18 19:01:00,61.0,30.0,-100.00,North,352,17.0,27.0,31,0.00,,,0.27,459.000000,,2013-04-19 00:01:00,
2013-04-18 19:32:00,60.0,28.0,-100.00,North,357,15.0,25.0,30,0.00,,,0.27,251.000000,,2013-04-19 00:32:00,
2013-04-18 19:42:00,60.0,28.0,-100.00,North,357,15.0,25.0,30,0.00,,,0.27,251.000000,,2013-04-19 00:42:00,
2013-04-18 19:52:00,60.0,28.0,-100.00,North,357,15.0,25.0,30,0.00,,,0.27,251.000000,,2013-04-19 00:52:00,
2013-04-18 20:01:00,60.0,28.0,-100.00,North,357,15.0,25.0,30,0.00,,,0.27,251.000000,,2013-04-19 01:01:00,
2013-04-18 20:32:00,57.0,27.0,-100.00,North,2,14.0,24.0,32,0.00,,,0.27,61.000000,,2013-04-19 01:32:00,
2013-04-18 20:42:00,57.0,27.0,-100.00,North,2,14.0,24.0,32,0.00,,,0.27,61.000000,,2013-04-19 01:42:00,
2013-04-18 20:52:00,57.0,27.0,-100.00,North,2,14.0,24.0,32,0.00,,,0.27,61.000000,,2013-04-19 01:52:00,
2013-04-18 21:02:00,57.0,27.0,-100.00,North,2,14.0,24.0,32,0.00,,,0.27,61.000000,,2013-04-19 02:02:00,
2013-04-18 21:32:00,55.0,29.0,-100.00,North,7,10.0,21.0,36,0.00,,,0.27,2.000000,,2013-04-19 02:32:00,
2013-04-18 21:42:00,55.0,29.0,-100.00,North,7,10.0,21.0,36,0.00,,,0.27,2.000000,,2013-04-19 02:42:00,
2013-04-18 21:52:00,55.0,29.0,-100.00,North,7,10.0,21.0,36,0.00,,,0.27,2.000000,,2013-04-19 02:52:00,
2013-04-18 22:01:00,55.0,29.0,-100.00,North,7,10.0,21.0,36,0.00,,,0.27,2.000000,,2013-04-19 03:01:00,
2013-04-18 22:33:00,53.0,27.0,-100.00,NNE,17,10.0,15.0,37,0.00,,,0.27,1.000000,,2013-04-19 03:33:00,
2013-04-18 22:43:00,53.0,27.0,-100.00,NNE,17,10.0,15.0,37,0.00,,,0.27,1.000000,,2013-04-19 03:43:00,
2013-04-18 22:53:00,53.0,27.0,-100.00,NNE,17,10.0,15.0,37,0.00,,,0.27,1.000000,,2013-04-19 03:53:00,
2013-04-18 23:03:00,53.0,27.0,-100.00,NNE,17,10.0,15.0,37,0.00,,,0.27,1.000000,,2013-04-19 04:03:00,
2013-04-18 23:33:00,50.0,27.0,-100.00,NE,34,10.0,14.0,41,0.00,,,0.27,1.000000,,2013-04-19 04:33:00,
2013-04-18 23:43:00,50.0,27.0,-100.00,NE,34,10.0,14.0,41,0.00,,,0.27,1.000000,,2013-04-19 04:43:00,
2013-04-18 23:52:00,50.0,27.0,-100.00,NE,34,10.0,14.0,41,0.00,,,0.27,1.000000,,2013-04-19 04:52:00,